Regional Weather Roundup
Issued by NWS Little Rock, AR

Home | Current Version | Previous Version | Graphics & Text | Print | Product List | Glossary On
Versions: 1 2 3 4 5 6 7 8 9 10 11 12 13 14 15 16 17 18 19 20 21 22 23 24 25 26 27 28 29 30 31 32 33 34 35 36 37 38 39 40 41 42 43 44 45 46 47 48 49 50
000
ASUS44 KLZK 221605
RWRLZK

WEATHER ROUNDUP FOR ARKANSAS
NATIONAL WEATHER SERVICE LITTLE ROCK AR
1100 AM CDT WED MAR 22 2017

NOTE: "FAIR" INDICATES FEW OR NO CLOUDS BELOW 12,000 FEET WITH NO
SIGNIFICANT WEATHER AND/OR OBSTRUCTIONS TO VISIBILITY.

ARZ001-003-010-029-221700-
NORTHWEST ARKANSAS

CITY           SKY/WX    TMP DP  RH WIND       PRES   REMARKS
FAYETTEVILLE   CLOUDY    49  39  68 E10       30.27R
FORT SMITH     CLOUDY    55  41  59 E23       30.24S
HARRISON       CLOUDY    46  35  65 E12G22    30.33R
BENTONVILLE    CLOUDY    48  34  57 SE14G23   30.28S
ROGERS         CLOUDY    47  37  68 E20       30.27S
SILOAM SPGS    CLOUDY    50  36  57 E14G22    30.25F
HIGHFILL       CLOUDY    49  34  56 E15G24    30.27R
SPRINGDALE     CLOUDY    48  37  66 E13G24    30.29R
$$

ARZ004-005-016-221700-
NORTH CENTRAL ARKANSAS

CITY           SKY/WX    TMP DP  RH WIND       PRES   REMARKS
BATESVILLE     CLOUDY    54  37  54 E13       30.36R
FLIPPIN        CLOUDY    52  32  46 E10       30.32S
MTN HOME       PTSUNNY   50  33  52 E12       30.33S
$$

ARZ040-041-221700-
WEST CENTRAL ARKANSAS

CITY           SKY/WX    TMP DP  RH WIND       PRES   REMARKS
MENA           MOSUNNY   61  50  67 E13       30.24S
MOUNT IDA      CLOUDY    56  43  61 VRB6      30.23F
$$

ARZ009-017-025-026-028-221700-
NORTHEAST ARKANSAS

CITY           SKY/WX    TMP DP  RH WIND       PRES   REMARKS
CORNING        FAIR      52  36  54 NE21      30.38S
JONESBORO      CLOUDY    51  41  68 NE18G26   30.34R
NEWPORT        PTSUNNY   52  42  69 NE18      30.35R
WALNUT RIDGE   MOSUNNY   52  36  54 NE22G28   30.37R
BLYTHEVILLE    CLOUDY    53  41  63 NE17G28   30.34R
$$

ARZ022-023-033-042-044-221700-
CENTRAL ARKANSAS

CITY           SKY/WX    TMP DP  RH WIND       PRES   REMARKS
LITTLE ROCK    CLOUDY    51  42  71 NE13      30.32R
N LITTLE ROCK    N/A     49  42  76 E12G20    30.31S
CONWAY           N/A     52  43  71 NE12G17   30.31F
SEARCY         CLOUDY    51  42  71 NE16      30.34S
HOT SPRINGS    CLOUDY    56  45  66 E13       30.28R
RUSSELLVILLE   CLOUDY    52  38  58 E13       30.31F
$$

ARZ036-221700-
EAST ARKANSAS

CITY           SKY/WX    TMP DP  RH WIND       PRES   REMARKS
WEST MEMPHIS   CLOUDY    53  45  74 NE13      30.30R
$$

ARZ050-053-066-070-073-221700-
SOUTHWEST ARKANSAS

CITY           SKY/WX    TMP DP  RH WIND       PRES   REMARKS
ARKADELPHIA    FAIR      58  48  69 NE8G16    30.28R
CAMDEN         PTSUNNY   63  46  55 E7        30.26S
TEXARKANA      CLOUDY    60  50  69 E9G20     30.21F
EL DORADO      PTSUNNY   62  49  62 E9        30.25S
DE QUEEN       MOSUNNY   62  49  62 E14       30.21R
$$

ARZ056-057-069-221700-
SOUTHEAST ARKANSAS

CITY           SKY/WX    TMP DP  RH WIND       PRES   REMARKS
PINE BLUFF     CLOUDY    54  45  71 N14       30.30S
STUTTGART      CLOUDY    54  37  54 NE15      30.31S
MONTICELLO     MOSUNNY   61  47  59 VRB7      30.26R

$$





USA.gov is the U.S. government's official web portal to all federal, state and local government web resources and services.